DateTimeUTC,F1_A11,F1_S11,BsB_S11,BsG_S11,BsR_S11,BbsB_S11,BbsG_S11,BbsR_S11,BaB_A11,BaG_A11,BaR_A11,Tu_S11,T_S11,Uu_S11,U_S11,P_S11,T1_A11
2021-10-19T17:00:00Z,00000200,21000000,,,,,,,0000.25,-000.03,-000.13,17.5,24.5,00.6,00.4,0674.6,31.0
2021-10-19T17:01:00Z,00000200,21000000,,,,,,,0000.03,0000.26,-000.29,17.5,24.5,00.6,00.4,0674.6,31.0
2021-10-19T17:02:00Z,00000200,21000000,,,,,,,-000.00,0000.13,0000.31,17.5,24.5,00.6,00.4,0674.6,31.0
2021-10-19T17:03:00Z,00000200,61000000,,,,,,,0000.46,0000.41,0000.52,17.5,24.5,00.6,00.4,0674.6,31.0
2021-10-19T17:04:00Z,00000200,41000000,0001.11,0000.77,0000.75,0000.50,0000.13,0000.11,0000.28,0000.00,-000.10,17.8,24.4,00.7,00.5,0675.5,31.0
2021-10-19T17:05:00Z,00000200,01000000,0000.63,0000.37,0000.17,0000.18,0000.39,-000.14,0000.04,0000.47,0000.34,17.9,24.4,00.8,00.6,0675.6,31.0
2021-10-19T17:06:00Z,00000200,01000000,-000.32,0000.14,-000.00,0000.15,0000.18,-000.07,-000.47,-000.56,-000.65,17.9,24.4,00.7,00.4,0675.6,31.0
2021-10-19T17:07:00Z,00000200,01000000,0000.24,0000.14,0000.25,0000.28,0000.23,-000.30,0000.16,0000.19,0000.48,17.9,24.4,00.5,00.3,0675.6,31.0
2021-10-19T17:08:00Z,00000200,01000000,0001.04,0000.30,0000.04,0000.50,0000.26,0000.13,0000.04,0000.04,-000.06,17.9,24.3,00.5,00.3,0675.6,31.0
2021-10-19T17:09:00Z,00000200,01000000,0000.43,0000.32,0000.66,0000.06,0000.08,0000.37,0000.06,-000.33,-000.12,17.9,24.3,00.4,00.3,0675.6,31.0
2021-10-19T17:10:00Z,00000200,01000000,0000.35,0000.47,0000.52,0000.54,0000.25,0000.22,-000.08,0000.08,0000.33,17.8,24.2,00.4,00.3,0675.6,31.0
2021-10-19T17:11:00Z,00000200,01000000,0001.09,0000.71,0000.25,0000.69,0000.34,-000.01,0000.12,0000.17,-000.19,17.8,24.2,00.3,00.2,0675.6,31.0
2021-10-19T17:12:00Z,00000200,01000000,0001.42,0000.32,0000.27,0000.03,0000.10,-000.18,0000.01,0000.06,0000.00,17.7,24.2,00.3,00.2,0675.6,31.0
2021-10-19T17:13:00Z,00000200,01000000,0001.20,0000.29,-000.01,-000.00,0000.02,0000.10,0000.25,0000.23,0000.22,17.7,24.2,00.3,00.2,0675.6,31.0
2021-10-19T17:14:00Z,00000200,01000000,-000.13,0000.18,0000.55,0000.55,0000.32,0000.21,0000.03,0000.34,0000.07,17.7,24.1,00.4,00.2,0675.6,31.0
2021-10-19T17:15:00Z,00000200,01000000,0000.91,0000.22,0000.50,0000.12,-000.16,0000.10,0000.43,-000.39,-000.04,17.7,24.1,00.3,00.2,0675.6,31.0
2021-10-19T17:16:00Z,00000200,01000000,0000.49,0000.00,0000.26,-000.37,0000.04,-000.02,-000.16,-000.11,0000.04,17.7,24.1,00.3,00.2,0675.6,31.0
2021-10-19T17:17:00Z,00000200,01000000,0000.89,0000.71,0000.52,-000.07,-000.28,0000.39,0000.21,0000.38,0000.33,17.7,24.1,00.3,00.2,0675.6,31.0
2021-10-19T17:18:00Z,00000200,01000000,0000.99,0000.33,0000.22,0000.35,0000.31,-000.04,0000.09,0000.37,-000.00,17.7,24.2,00.4,00.3,0675.5,31.0
2021-10-19T17:19:00Z,00000200,01000000,0001.17,0000.48,0000.23,0000.87,-000.14,0000.02,0000.83,0000.48,0000.60,17.8,24.2,00.4,00.2,0675.5,31.0
2021-10-19T17:20:00Z,00000200,01000000,0001.46,0000.34,0000.59,0000.54,-000.00,0000.07,0000.23,0000.70,0000.34,17.9,24.2,00.5,00.3,0675.6,31.0
2021-10-19T17:21:00Z,00000200,01000000,0000.93,0000.41,0000.55,-000.04,0000.18,0000.08,0000.42,-000.20,-000.04,17.9,24.3,00.4,00.3,0675.6,31.0
2021-10-19T17:22:00Z,00000200,01000000,0000.51,0000.25,0000.10,0000.38,0000.23,0000.10,0000.25,0000.44,0000.26,17.9,24.3,00.4,00.3,0675.6,31.0
2021-10-19T17:23:00Z,00000200,01000000,0001.64,0000.12,0000.14,0000.34,0000.69,0000.12,0000.16,0000.37,-000.07,17.9,24.3,00.4,00.2,0675.6,31.0
2021-10-19T17:24:00Z,00000200,01000000,0000.48,0000.26,0000.49,0000.53,0000.04,-000.01,0000.13,-000.03,0000.46,17.9,24.3,00.4,00.3,0675.5,31.0
2021-10-19T17:25:00Z,00000200,01000000,0000.37,0000.23,0000.40,0000.20,0000.06,-000.18,0000.38,0000.43,-000.02,17.9,24.2,00.4,00.2,0675.5,31.0
2021-10-19T17:26:00Z,00000200,01000000,-000.59,0000.21,0000.22,-000.07,-000.22,0000.38,0000.19,-000.01,0000.02,17.8,24.2,00.4,00.3,0675.6,31.0
2021-10-19T17:27:00Z,00000200,01000000,0000.64,0000.20,0000.01,0000.11,-000.10,-000.10,-000.28,-000.10,-000.11,17.8,24.2,00.4,00.2,0675.5,31.0
2021-10-19T17:28:00Z,00000200,01000000,-000.13,0000.04,-000.10,-000.05,-000.07,-000.04,-000.10,-000.05,-000.05,17.8,24.2,00.4,00.2,0675.6,31.0
2021-10-19T17:29:00Z,00000200,01000000,0000.21,0000.12,0000.13,0000.34,-000.19,0000.00,0000.01,-000.42,-000.30,17.7,24.1,00.2,00.2,0675.6,31.0
2021-10-19T17:30:00Z,00000200,01000000,0000.69,0000.25,0000.11,-000.39,0000.18,-000.06,-000.19,-000.18,-000.12,17.7,24.1,00.3,00.2,0675.6,31.0
2021-10-19T17:31:00Z,00000200,01000000,0000.13,0000.25,0000.33,-000.37,0000.08,-000.17,-000.34,-000.17,0000.15,17.7,24.1,00.3,00.2,0675.6,31.0
2021-10-19T17:32:00Z,00000200,01000000,0000.91,0000.03,0000.33,-000.28,0000.01,0000.35,-000.10,0000.25,0000.17,17.7,24.1,00.3,00.2,0675.6,31.0
2021-10-19T17:33:00Z,00000200,01000000,0001.47,-000.16,0000.17,-000.37,0000.06,0000.08,0000.18,-000.01,-000.12,17.8,24.2,00.2,00.2,0675.5,31.0
2021-10-19T17:34:00Z,00000200,01000000,-000.41,-000.13,-000.03,-000.30,-000.06,0000.05,-000.24,-000.23,-000.19,17.8,24.2,00.1,00.1,0675.6,31.0
2021-10-19T17:35:00Z,00000200,01000000,0001.07,0000.11,-000.06,-000.11,0000.61,-000.27,0000.59,0000.43,0000.34,17.9,24.3,00.2,00.1,0675.6,31.0
2021-10-19T17:36:00Z,00000200,01000000,0000.73,0000.28,-000.08,-000.27,0000.21,0000.00,-000.25,-000.49,-000.21,17.9,24.3,00.2,00.1,0675.6,31.1
2021-10-19T17:37:00Z,00000200,01000000,-000.39,0000.03,-000.01,0000.25,0000.20,-000.06,-000.11,0000.09,0000.15,17.9,24.3,00.2,00.1,0675.6,31.1
2021-10-19T17:38:00Z,00000200,01000000,0000.55,-000.05,0000.21,0000.28,0000.48,0000.17,0000.02,0000.33,-000.32,17.9,24.3,00.1,00.1,0675.7,31.0
2021-10-19T17:39:00Z,00000200,01000000,0000.56,-000.05,0000.03,0000.86,0000.30,-000.01,0000.19,0000.02,0000.28,17.9,24.3,00.1,00.1,0675.7,31.0
2021-10-19T17:40:00Z,00000200,01000000,0000.93,0000.06,0000.19,-000.07,0000.11,-000.01,0000.01,-000.13,-000.21,17.9,24.3,00.1,00.1,0675.7,31.0
2021-10-19T17:41:00Z,00000200,01000000,-000.11,0000.23,0000.24,0000.40,0000.02,-000.15,-000.15,0000.14,0000.12,17.8,24.2,00.1,00.1,0675.7,31.0
2021-10-19T17:42:00Z,00000200,01000000,0000.62,-000.07,0000.15,0000.41,-000.08,0000.11,0000.29,-000.17,0000.22,17.8,24.2,00.1,00.1,0675.7,31.0
2021-10-19T17:43:00Z,00000200,01000000,0001.22,-000.02,-000.19,0000.22,-000.00,0000.08,0000.10,0000.59,-000.08,17.8,24.2,00.1,00.1,0675.7,31.0
2021-10-19T17:44:00Z,00000200,01000000,0000.75,-000.32,0000.22,0000.37,0000.17,0000.24,-000.15,-000.66,-000.40,17.7,24.1,00.1,00.1,0675.7,31.0
2021-10-19T17:45:00Z,00000200,01000000,0000.62,-000.15,-000.12,0000.20,0000.24,-000.23,-000.32,-000.32,0000.07,17.7,24.1,00.1,00.1,0675.7,31.0
2021-10-19T17:46:00Z,00000200,01000000,0000.01,0000.46,0000.35,0000.01,-000.21,0000.21,-000.01,0000.15,0000.13,17.7,24.1,00.1,00.0,0675.7,31.0
2021-10-19T17:47:00Z,00000200,01000000,-000.35,-000.20,-000.14,0000.08,0000.09,-000.03,-000.09,-000.03,-000.14,17.8,24.2,00.0,00.0,0675.7,31.0
2021-10-19T17:48:00Z,00000200,01000000,-000.42,0000.25,0000.03,-000.63,-000.53,0000.02,0000.02,0000.08,-000.01,17.8,24.2,00.1,00.0,0675.7,31.0
2021-10-19T17:49:00Z,00000200,01000000,0000.45,-000.28,0000.11,0000.19,-000.06,0000.07,0000.07,0000.08,0000.07,17.9,24.2,00.1,00.1,0675.7,31.0
2021-10-19T17:50:00Z,00000200,01000000,0000.61,0000.32,0000.14,0000.26,-000.15,0000.02,-000.10,-000.34,0000.06,17.9,24.3,00.1,00.0,0675.7,31.0
2021-10-19T17:51:00Z,00000200,01000000,0000.42,-000.41,-000.02,0000.15,0000.45,0000.03,-000.16,-000.01,-000.18,17.9,24.3,00.0,00.0,0675.7,31.0
2021-10-19T17:52:00Z,00000200,01000000,0000.87,-000.04,-000.03,0000.30,0000.10,0000.00,-000.01,-000.28,-000.41,17.9,24.3,00.0,00.0,0675.7,31.0
2021-10-19T17:53:00Z,00000200,01000000,0000.25,0000.01,0000.21,-000.06,0000.08,0000.05,0000.07,0000.24,0000.32,17.9,24.2,00.0,00.0,0675.7,31.0
2021-10-19T17:54:00Z,00000200,01000000,0000.53,0000.24,0000.32,0000.68,-000.09,0000.23,-000.10,0000.28,0000.16,17.8,24.2,00.0,00.0,0675.7,31.0
2021-10-19T17:55:00Z,00000200,01000000,0000.59,0000.00,-000.04,0000.13,0000.14,0000.21,-000.21,-000.59,-000.31,17.8,24.2,,00.0,0675.7,31.0
2021-10-19T17:56:00Z,00000200,01000000,-000.18,0000.04,0000.35,-000.05,0000.25,0000.07,-000.05,0000.02,-000.02,17.8,24.2,,00.0,0675.7,31.0
2021-10-19T17:57:00Z,00000200,41000000,,,,,,,0001.50,0001.58,0000.97,17.8,24.2,,00.0,0675.6,31.0
2021-10-19T17:58:00Z,00000200,61000000,,,,,,,-000.71,-000.81,-000.62,17.4,24.3,,00.0,0674.7,31.0
2021-10-19T17:59:00Z,00000200,21000000,,,,,,,-000.16,-000.19,-000.01,17.4,24.4,,00.0,0674.7,31.0
